User: anonymous   Login
Location: Saint-Denis
(20.8800°S, 55.4481°E)
Time: 00:42:03
(UTC+04:00)
Language:

EO-88 - Orbit

View from above orbital plane
View from above orbital plane
View from above satellite
View from above satellite

Ground track
Ground track

The orbit data is extracted from the following two-line orbital elements,

1 42017U 17008BX  23155.14596670  .00179262  00000-0  11716-2 0  9999
2 42017  97.2101 225.9451 0002546 188.5922 171.5301 15.75308301351411
Epoch (UTC): 04 June 2023 03:30:11
Eccentricity: 0.0002546
inclination: 97.2101°
perigee height: 342 km
apogee height: 345 km
right ascension of ascending node: 225.9451°
argument of perigee: 188.5922°
revolutions per day: 15.75308301
mean anomaly at epoch: 171.5301°
orbit number at epoch: 35141

The dashed part of the orbit path shows where the satellite is in the earth's shadow,  

DLR